Location: downtown San Diego
(32.7310°N, 117.1990°W)
Time: 08:17:11
(UTC-07:00)

Cosmos 1709 Rocket - Pass Details

Date: 12 July 2018
Orbit: 949 x 1001 km, 82.9° (Epoch: 20 September)

Event Time Altitude Azimuth Distance (km) Brightness Sun altitude
Rises 20:19:35 0° 0° (N) 3,631 7.4 -4.7°
Reaches altitude 10° 20:22:10 10° 6° (N) 2,679 6.7 -5.2°
Maximum altitude 20:28:06 51° 81° (E) 1,180 4.2 -6.2°
Drops below altitude 10° 20:33:59 10° 156° (SSE) 2,666 5.8 -7.3°
Enters shadow 20:36:29 - 162° (SSE) 3,586 6.5 -7.7°
